QPF
0.00 0.00 0.03 0.05 0.03 0.03 0.01 0.01 0.02 0.02 0.03 0.04 0.03 0.01 0.00 0.00 0.00 0.00 0.00 0.00 0.00 0.00 0.00 0.00 0.00 0.00 0.00 0.00 0.00 0.00 0.00 0.01 0.03 0.04 0.06 0.15 0.32 0.26 0.22 0.18 0.07 0.10 0.12 0.06
0.00 0.00 0.00 0.00 0.01 0.01 0.03 0.05 0.04 0.04 0.03 0.04 0.03 0.01 0.00 0.00 0.00 0.00 0.00 0.00 0.00 0.00 0.00 0.00 0.00 0.00 0.00 0.00 0.00 0.00 0.00 0.01 0.01 0.03 0.05 0.12 0.17 0.08 0.09 0.12 0.14 0.11 0.08 0.04
0.00 0.00 0.00 0.00 0.01 0.03 0.06 0.08 0.10 0.10 0.06 0.04 0.03 0.02 0.00 0.00 0.00 0.00 0.00 0.00 0.00 0.00 0.00 0.00 0.00 0.00 0.00 0.00 0.00 0.00 0.00 0.01 0.01 0.01 0.03 0.05 0.08 0.10 0.19 0.21 0.22 0.20 0.15 0.08
0.00 0.00 0.00 0.01 0.02 0.03 0.05 0.05 0.06 0.09 0.12 0.12 0.12 0.12 0.03 0.01 0.01 0.00 0.00 0.00 0.00 0.00 0.00 0.00 0.00 0.00 0.00 0.00 0.00 0.00 0.00 0.00 0.01 0.01 0.03 0.07 0.10 0.14 0.16 0.20 0.20 0.13 0.12 0.09
0.00 0.00 0.00 0.00 0.01 0.01 0.02 0.01 0.02 0.05 0.08 0.08 0.08 0.11 0.04 0.02 0.02 0.01 0.00 0.00 0.00 0.00 0.00 0.00 0.00 0.00 0.00 0.00 0.00 0.00 0.00 0.00 0.00 0.01 0.04 0.07 0.08 0.09 0.11 0.13 0.11 0.13 0.10 0.05
0.00 0.00 0.00 0.00 0.00 0.00 0.00 0.01 0.01 0.02 0.04 0.04 0.03 0.06 0.04 0.02 0.01 0.00 0.00 0.00 0.00 0.00 0.00 0.00 0.00 0.00 0.00 0.00 0.00 0.00 0.00 0.00 0.00 0.01 0.01 0.03 0.05 0.07 0.08 0.06 0.05 0.06 0.09 0.11
0.00 0.00 0.00 0.00 0.00 0.00 0.00 0.01 0.05 0.06 0.05 0.03 0.01 0.03 0.02 0.01 0.00 0.00 0.00 0.00 0.00 0.00 0.00 0.01 0.00 0.00 0.00 0.00 0.00 0.00 0.00 0.00 0.00 0.00 0.00 0.01 0.02 0.04 0.04 0.05 0.04 0.04 0.05 0.06
0.00 0.00 0.00 0.00 0.00 0.00 0.00 0.01 0.06 0.08 0.07 0.03 0.01 0.00 0.00 0.00 0.00 0.00 0.00 0.00 0.00 0.00 0.00 0.01 0.00 0.00 0.00 0.00 0.00 0.00 0.00 0.00 0.00 0.00 0.00 0.01 0.01 0.01 0.01 0.01 0.02 0.03 0.03 0.02
0.00 0.00 0.00 0.00 0.01 0.00 0.00 0.00 0.01 0.02 0.02 0.02 0.01 0.00 0.00 0.00 0.00 0.00 0.00 0.00 0.00 0.00 0.00 0.00 0.00 0.00 0.00 0.00 0.00 0.00 0.00 0.00 0.00 0.00 0.00 0.00 0.01 0.00 0.00 0.01 0.02 0.02 0.01 0.01
0.00 0.01 0.00 0.00 0.00 0.00 0.00 0.01 0.01 0.04 0.07 0.05 0.03 0.02 0.02 0.01 0.01 0.00 0.01 0.03 0.03 0.04 0.04 0.04 0.01 0.00 0.00 0.00 0.00 0.00 0.00 0.00 0.00 0.00 0.00 0.00 0.00 0.00 0.00 0.00 0.02 0.01 0.01 0.01
0.00 0.01 0.00 0.00 0.00 0.02 0.04 0.05 0.06 0.09 0.09 0.12 0.14 0.13 0.08 0.08 0.05 0.02 0.03 0.04 0.03 0.03 0.04 0.04 0.03 0.01 0.00 0.00 0.00 0.00 0.00 0.00 0.00 0.00 0.00 0.00 0.00 0.00 0.00 0.00 0.01 0.01 0.01 0.01
0.00 0.04 0.02 0.00 0.02 0.03 0.03 0.03 0.08 0.17 0.13 0.15 0.16 0.10 0.05 0.06 0.05 0.03 0.04 0.03 0.02 0.02 0.02 0.01 0.01 0.01 0.00 0.00 0.00 0.00 0.00 0.00 0.00 0.00 0.00 0.00 0.00 0.00 0.00 0.00 0.00 0.01 0.00 0.00
0.02 0.09 0.10 0.08 0.18 0.21 0.13 0.04 0.02 0.04 0.06 0.08 0.11 0.06 0.03 0.06 0.09 0.07 0.05 0.03 0.02 0.02 0.02 0.01 0.00 0.00 0.00 0.00 0.00 0.00 0.00 0.00 0.00 0.00 0.00 0.00 0.00 0.00 0.00 0.00 0.00 0.01 0.01 0.00
0.01 0.08 0.12 0.16 0.19 0.19 0.15 0.04 0.00 0.00 0.02 0.04 0.07 0.05 0.03 0.04 0.05 0.04 0.02 0.01 0.01 0.01 0.00 0.00 0.00 0.00 0.00 0.00 0.00 0.00 0.00 0.00 0.01 0.01 0.01 0.01 0.00 0.00 0.00 0.00 0.00 0.00 0.01 0.00
0.00 0.01 0.02 0.03 0.02 0.02 0.02 0.02 0.01 0.01 0.02 0.07 0.07 0.04 0.01 0.00 0.00 0.00 0.00 0.00 0.00 0.00 0.00 0.00 0.00 0.00 0.00 0.00 0.00 0.00 0.00 0.00 0.01 0.03 0.03 0.01 0.00 0.00 0.00 0.00 0.00 0.00 0.00 0.00
0.00 0.00 0.00 0.00 0.00 0.00 0.02 0.06 0.06 0.04 0.07 0.12 0.10 0.06 0.01 0.00 0.00 0.01 0.00 0.00 0.00 0.00 0.00 0.00 0.00 0.00 0.00 0.00 0.00 0.00 0.00 0.00 0.01 0.04 0.04 0.01 0.01 0.01 0.00 0.00 0.00 0.00 0.00 0.00
0.00 0.00 0.01 0.01 0.00 0.01 0.06 0.07 0.07 0.08 0.07 0.05 0.04 0.03 0.01 0.02 0.05 0.07 0.03 0.01 0.00 0.00 0.00 0.00 0.01 0.01 0.00 0.00 0.00 0.00 0.00 0.01 0.01 0.03 0.04 0.02 0.03 0.03 0.02 0.02 0.02 0.01 0.01 0.00
0.00 0.02 0.05 0.05 0.04 0.09 0.17 0.14 0.19 0.23 0.12 0.05 0.05 0.05 0.03 0.13 0.28 0.15 0.06 0.04 0.02 0.02 0.01 0.01 0.02 0.02 0.01 0.00 0.00 0.00 0.02 0.02 0.02 0.04 0.07 0.07 0.07 0.06 0.08 0.09 0.08 0.08 0.06 0.05
0.00 0.03 0.07 0.09 0.10 0.24 0.28 0.15 0.26 0.27 0.16 0.06 0.07 0.06 0.04 0.11 0.16 0.10 0.03 0.02 0.02 0.02 0.02 0.02 0.02 0.01 0.01 0.01 0.00 0.00 0.01 0.02 0.02 0.02 0.03 0.05 0.06 0.08 0.11 0.11 0.13 0.19 0.20 0.18
0.00 0.02 0.06 0.07 0.08 0.20 0.24 0.09 0.16 0.21 0.21 0.05 0.04 0.03 0.01 0.01 0.02 0.06 0.05 0.02 0.02 0.01 0.00 0.01 0.01 0.00 0.00 0.00 0.00 0.00 0.00 0.00 0.00 0.00 0.00 0.00 0.01 0.02 0.05 0.07 0.09 0.14 0.18 0.22
0.00 0.01 0.02 0.02 0.04 0.06 0.04 0.04 0.10 0.21 0.22 0.04 0.02 0.01 0.00 0.00 0.00 0.04 0.06 0.02 0.02 0.01 0.00 0.00 0.00 0.00 0.00 0.00 0.00 0.00 0.00 0.00 0.00 0.00 0.00 0.00 0.00 0.00 0.00 0.01 0.02 0.04 0.08 0.11
0.00 0.01 0.01 0.01 0.02 0.02 0.01 0.04 0.10 0.09 0.04 0.01 0.00 0.00 0.00 0.00 0.00 0.01 0.03 0.01 0.01 0.00 0.00 0.00 0.00 0.00 0.00 0.00 0.00 0.00 0.00 0.00 0.00 0.00 0.00 0.00 0.00 0.00 0.00 0.00 0.00 0.01 0.02 0.03
0.00 0.01 0.01 0.01 0.01 0.01 0.01 0.02 0.03 0.02 0.01 0.00 0.00 0.00 0.00 0.00 0.00 0.00 0.01 0.01 0.00 0.00 0.00 0.00 0.00 0.00 0.00 0.00 0.00 0.00 0.00 0.00 0.00 0.00 0.00 0.00 0.00 0.00 0.00 0.01 0.01 0.01 0.02 0.03
0.00 0.00 0.01 0.01 0.01 0.00 0.00 0.01 0.00 0.01 0.01 0.00 0.00 0.00 0.00 0.00 0.00 0.00 0.00 0.00 0.00 0.00 0.00 0.00 0.00 0.00 0.00 0.00 0.00 0.00 0.00 0.00 0.00 0.00 0.00 0.00 0.00 0.00 0.00 0.01 0.01 0.01 0.02 0.03
0.00 0.01 0.01 0.01 0.00 0.00 0.00 0.00 0.00 0.00 0.00 0.00 0.00 0.00 0.00 0.00 0.00 0.00 0.00 0.00 0.00 0.00 0.00 0.00 0.00 0.00 0.00 0.00 0.00 0.00 0.00 0.00 0.00 0.00 0.00 0.00 0.00 0.00 0.00 0.01 0.01 0.01 0.01 0.03
0.00 0.00 0.01 0.00 0.00 0.00 0.00 0.00 0.00 0.01 0.00 0.00 0.00 0.00 0.00 0.00 0.00 0.00 0.00 0.00 0.00 0.00 0.00 0.00 0.00 0.00 0.00 0.00 0.00 0.00 0.00 0.00 0.00 0.00 0.00 0.00 0.01 0.01 0.00 0.00 0.00 0.00 0.00 0.01
MSLP
1008.63 1008.88 1009.12 1009.38 1009.69 1010.07 1010.51 1010.96 1011.36 1011.61 1011.62 1011.34 1010.73 1009.82 1008.66 1007.38 1006.11 1004.98 1004.09 1003.50 1003.24 1003.27 1003.53 1003.94 1004.41 1004.87 1005.29 1005.66 1005.99 1006.33 1006.70 1007.15 1007.68 1008.27 1008.89 1009.49 1010.03 1010.45 1010.74 1010.91 1010.97 1010.97 1010.97 1011.02
1008.82 1008.98 1009.15 1009.39 1009.74 1010.22 1010.83 1011.50 1012.13 1012.60 1012.80 1012.63 1012.04 1011.05 1009.74 1008.23 1006.70 1005.30 1004.18 1003.42 1003.05 1003.06 1003.37 1003.86 1004.44 1005.01 1005.51 1005.93 1006.28 1006.61 1006.95 1007.36 1007.86 1008.42 1009.03 1009.63 1010.17 1010.60 1010.88 1011.03 1011.06 1011.03 1011.00 1011.01
1008.83 1008.90 1009.00 1009.20 1009.57 1010.13 1010.87 1011.72 1012.56 1013.23 1013.60 1013.55 1013.01 1011.98 1010.56 1008.88 1007.15 1005.55 1004.24 1003.35 1002.91 1002.90 1003.25 1003.83 1004.51 1005.18 1005.77 1006.25 1006.63 1006.95 1007.28 1007.65 1008.09 1008.62 1009.19 1009.76 1010.27 1010.67 1010.94 1011.07 1011.08 1011.04 1010.98 1010.98
1008.72 1008.70 1008.72 1008.88 1009.23 1009.83 1010.65 1011.62 1012.61 1013.44 1013.95 1014.01 1013.53 1012.51 1011.05 1009.28 1007.43 1005.70 1004.28 1003.30 1002.82 1002.81 1003.20 1003.84 1004.61 1005.37 1006.04 1006.58 1006.99 1007.31 1007.61 1007.93 1008.32 1008.78 1009.29 1009.81 1010.28 1010.64 1010.88 1011.00 1011.00 1010.95 1010.90 1010.90
1008.62 1008.52 1008.46 1008.55 1008.86 1009.44 1010.27 1011.29 1012.35 1013.27 1013.88 1014.03 1013.62 1012.66 1011.21 1009.44 1007.56 1005.79 1004.33 1003.32 1002.82 1002.82 1003.24 1003.94 1004.77 1005.59 1006.32 1006.89 1007.32 1007.63 1007.89 1008.17 1008.49 1008.88 1009.32 1009.76 1010.18 1010.50 1010.72 1010.82 1010.83 1010.79 1010.76 1010.78
1008.67 1008.50 1008.36 1008.36 1008.59 1009.09 1009.87 1010.85 1011.91 1012.85 1013.51 1013.72 1013.39 1012.50 1011.13 1009.43 1007.60 1005.87 1004.44 1003.45 1002.97 1002.98 1003.42 1004.14 1004.99 1005.83 1006.57 1007.15 1007.57 1007.87 1008.09 1008.31 1008.57 1008.88 1009.24 1009.63 1009.98 1010.27 1010.46 1010.56 1010.59 1010.58 1010.58 1010.63
1008.99 1008.75 1008.54 1008.44 1008.55 1008.93 1009.59 1010.47 1011.44 1012.34 1012.98 1013.23 1012.97 1012.19 1010.94 1009.36 1007.65 1006.03 1004.68 1003.74 1003.29 1003.31 1003.73 1004.43 1005.25 1006.07 1006.78 1007.34 1007.73 1007.98 1008.16 1008.33 1008.53 1008.78 1009.08 1009.41 1009.72 1009.98 1010.17 1010.27 1010.32 1010.35 1010.38 1010.47
1009.62 1009.34 1009.06 1008.85 1008.83 1009.05 1009.54 1010.26 1011.09 1011.89 1012.48 1012.73 1012.53 1011.85 1010.75 1009.33 1007.78 1006.30 1005.06 1004.19 1003.77 1003.77 1004.15 1004.78 1005.53 1006.27 1006.91 1007.40 1007.74 1007.95 1008.09 1008.21 1008.37 1008.58 1008.84 1009.13 1009.42 1009.67 1009.86 1009.99 1010.06 1010.12 1010.20 1010.32
1010.53 1010.23 1009.88 1009.58 1009.43 1009.49 1009.79 1010.32 1010.98 1011.64 1012.15 1012.37 1012.21 1011.64 1010.68 1009.42 1008.05 1006.72 1005.58 1004.78 1004.35 1004.32 1004.61 1005.13 1005.75 1006.38 1006.91 1007.31 1007.58 1007.74 1007.85 1007.95 1008.09 1008.28 1008.53 1008.82 1009.11 1009.36 1009.57 1009.72 1009.83 1009.92 1010.03 1010.19
1011.60 1011.30 1010.91 1010.54 1010.27 1010.18 1010.31 1010.66 1011.14 1011.65 1012.06 1012.25 1012.11 1011.61 1010.77 1009.67 1008.45 1007.24 1006.20 1005.42 1004.97 1004.86 1005.03 1005.40 1005.87 1006.34 1006.74 1007.04 1007.24 1007.36 1007.44 1007.54 1007.69 1007.90 1008.17 1008.47 1008.78 1009.06 1009.29 1009.47 1009.61 1009.73 1009.87 1010.04
1012.66 1012.37 1011.99 1011.58 1011.24 1011.05 1011.05 1011.24 1011.58 1011.96 1012.27 1012.40 1012.26 1011.81 1011.06 1010.07 1008.95 1007.83 1006.83 1006.05 1005.54 1005.31 1005.33 1005.53 1005.82 1006.13 1006.40 1006.60 1006.73 1006.82 1006.90 1007.02 1007.20 1007.45 1007.76 1008.11 1008.45 1008.77 1009.03 1009.23 1009.39 1009.53 1009.67 1009.86
1013.53 1013.29 1012.94 1012.54 1012.20 1011.96 1011.90 1012.00 1012.23 1012.51 1012.73 1012.81 1012.65 1012.21 1011.50 1010.56 1009.50 1008.41 1007.42 1006.59 1005.99 1005.63 1005.49 1005.51 1005.63 1005.78 1005.93 1006.04 1006.12 1006.20 1006.29 1006.45 1006.68 1006.98 1007.34 1007.74 1008.12 1008.47 1008.75 1008.97 1009.14 1009.28 1009.42 1009.60
1014.12 1013.94 1013.66 1013.34 1013.05 1012.85 1012.79 1012.86 1013.04 1013.26 1013.42 1013.44 1013.24 1012.78 1012.06 1011.13 1010.07 1008.97 1007.92 1007.02 1006.32 1005.82 1005.53 1005.39 1005.36 1005.38 1005.43 1005.47 1005.53 1005.60 1005.73 1005.92 1006.20 1006.55 1006.96 1007.39 1007.81 1008.17 1008.47 1008.69 1008.85 1008.98 1009.11 1009.28
1014.39 1014.31 1014.14 1013.94 1013.77 1013.67 1013.67 1013.79 1013.97 1014.16 1014.27 1014.24 1013.98 1013.47 1012.71 1011.73 1010.62 1009.47 1008.36 1007.37 1006.56 1005.94 1005.52 1005.26 1005.11 1005.04 1005.02 1005.03 1005.08 1005.16 1005.31 1005.54 1005.86 1006.24 1006.67 1007.12 1007.54 1007.90 1008.19 1008.40 1008.54 1008.65 1008.75 1008.90
1014.45 1014.47 1014.44 1014.40 1014.39 1014.44 1014.56 1014.75 1014.98 1015.17 1015.25 1015.15 1014.83 1014.24 1013.40 1012.35 1011.17 1009.95 1008.76 1007.69 1006.79 1006.09 1005.58 1005.23 1005.02 1004.91 1004.86 1004.85 1004.90 1005.00 1005.17 1005.41 1005.73 1006.12 1006.54 1006.97 1007.37 1007.71 1007.96 1008.14 1008.25 1008.32 1008.39 1008.50
1014.42 1014.56 1014.69 1014.82 1014.99 1015.20 1015.47 1015.76 1016.04 1016.24 1016.29 1016.13 1015.72 1015.04 1014.12 1012.98 1011.72 1010.42 1009.17 1008.05 1007.10 1006.35 1005.80 1005.43 1005.20 1005.07 1005.02 1005.03 1005.08 1005.18 1005.35 1005.58 1005.87 1006.22 1006.60 1006.98 1007.33 1007.61 1007.82 1007.95 1008.02 1008.06 1008.09 1008.17
1014.49 1014.74 1015.01 1015.31 1015.65 1016.02 1016.41 1016.80 1017.12 1017.32 1017.33 1017.10 1016.60 1015.83 1014.81 1013.60 1012.27 1010.92 1009.64 1008.49 1007.53 1006.78 1006.24 1005.89 1005.68 1005.58 1005.55 1005.57 1005.63 1005.73 1005.87 1006.06 1006.29 1006.57 1006.87 1007.17 1007.44 1007.66 1007.81 1007.89 1007.92 1007.91 1007.91 1007.95
1014.79 1015.13 1015.52 1015.95 1016.41 1016.90 1017.39 1017.82 1018.16 1018.33 1018.29 1017.98 1017.39 1016.53 1015.43 1014.16 1012.79 1011.43 1010.15 1009.03 1008.11 1007.40 1006.91 1006.61 1006.45 1006.39 1006.40 1006.43 1006.49 1006.56 1006.66 1006.78 1006.93 1007.12 1007.32 1007.52 1007.70 1007.85 1007.94 1007.97 1007.97 1007.93 1007.90 1007.91
1015.36 1015.76 1016.22 1016.73 1017.27 1017.81 1018.33 1018.77 1019.07 1019.19 1019.06 1018.67 1018.00 1017.06 1015.91 1014.61 1013.25 1011.91 1010.68 1009.62 1008.77 1008.15 1007.73 1007.50 1007.40 1007.39 1007.42 1007.47 1007.52 1007.55 1007.59 1007.63 1007.69 1007.77 1007.87 1007.97 1008.07 1008.15 1008.19 1008.20 1008.17 1008.12 1008.07 1008.05
1016.17 1016.58 1017.06 1017.58 1018.12 1018.65 1019.14 1019.52 1019.75 1019.78 1019.56 1019.08 1018.34 1017.36 1016.19 1014.90 1013.58 1012.31 1011.16 1010.19 1009.44 1008.91 1008.58 1008.42 1008.38 1008.41 1008.46 1008.51 1008.53 1008.53 1008.50 1008.47 1008.44 1008.43 1008.43 1008.45 1008.49 1008.51 1008.53 1008.52 1008.49 1008.45 1008.40 1008.37
1017.07 1017.46 1017.90 1018.38 1018.86 1019.32 1019.71 1019.99 1020.11 1020.03 1019.72 1019.16 1018.37 1017.37 1016.22 1014.98 1013.73 1012.56 1011.52 1010.66 1010.02 1009.58 1009.33 1009.23 1009.23 1009.29 1009.35 1009.39 1009.39 1009.34 1009.26 1009.17 1009.07 1008.99 1008.93 1008.90 1008.89 1008.89 1008.90 1008.90 1008.89 1008.86 1008.83 1008.80
1017.91 1018.24 1018.60 1018.99 1019.36 1019.70 1019.97 1020.11 1020.11 1019.91 1019.51 1018.89 1018.08 1017.09 1015.99 1014.83 1013.69 1012.64 1011.72 1010.98 1010.43 1010.07 1009.88 1009.82 1009.85 1009.91 1009.96 1009.99 1009.97 1009.90 1009.78 1009.65 1009.51 1009.39 1009.30 1009.25 1009.23 1009.23 1009.25 1009.28 1009.30 1009.31 1009.31 1009.28
1018.54 1018.78 1019.04 1019.30 1019.55 1019.74 1019.87 1019.88 1019.74 1019.45 1018.98 1018.33 1017.52 1016.58 1015.55 1014.50 1013.49 1012.55 1011.75 1011.11 1010.64 1010.34 1010.19 1010.15 1010.17 1010.22 1010.27 1010.28 1010.24 1010.16 1010.04 1009.90 1009.76 1009.63 1009.54 1009.49 1009.49 1009.51 1009.56 1009.63 1009.69 1009.73 1009.76 1009.76
1018.85 1018.99 1019.14 1019.28 1019.39 1019.46 1019.45 1019.34 1019.11 1018.74 1018.22 1017.57 1016.80 1015.92 1015.00 1014.06 1013.17 1012.35 1011.66 1011.10 1010.69 1010.42 1010.27 1010.22 1010.23 1010.26 1010.28 1010.28 1010.24 1010.17 1010.06 1009.94 1009.83 1009.73 1009.67 1009.65 1009.67 1009.73 1009.82 1009.92 1010.01 1010.09 1010.15 1010.17
1018.82 1018.87 1018.92 1018.96 1018.96 1018.92 1018.81 1018.62 1018.32 1017.91 1017.39 1016.76 1016.04 1015.25 1014.43 1013.61 1012.82 1012.11 1011.49 1010.99 1010.61 1010.35 1010.19 1010.11 1010.08 1010.08 1010.09 1010.08 1010.05 1010.01 1009.94 1009.87 1009.80 1009.75 1009.74 1009.76 1009.81 1009.90 1010.01 1010.14 1010.26 1010.37 1010.45 1010.48
1018.48 1018.46 1018.44 1018.41 1018.36 1018.26 1018.10 1017.86 1017.54 1017.13 1016.63 1016.04 1015.39 1014.68 1013.95 1013.23 1012.54 1011.90 1011.33 1010.86 1010.49 1010.20 1010.01 1009.89 1009.82 1009.79 1009.78 1009.78 1009.77 1009.77 1009.75 1009.74 1009.74 1009.75 1009.78 1009.84 1009.93 1010.04 1010.17 1010.31 1010.44 1010.56 1010.65 1010.70
Thickness
5772 5765 5760 5764 5765 5761 5758 5753 5752 5757 5759 5751 5746 5757 5790 5811 5812 5811 5812 5816 5817 5817 5821 5822 5820 5818 5815 5811 5806 5801 5793 5787 5780 5773 5767 5762 5759 5758 5756 5755 5752 5749 5747 5746
5759 5753 5764 5763 5755 5747 5742 5737 5740 5748 5750 5738 5734 5744 5770 5794 5805 5809 5811 5814 5816 5815 5813 5811 5810 5808 5805 5802 5799 5795 5787 5781 5775 5769 5764 5760 5756 5754 5751 5749 5746 5743 5741 5740
5742 5752 5761 5752 5743 5735 5732 5724 5723 5720 5728 5732 5722 5726 5747 5774 5798 5807 5811 5814 5817 5813 5806 5802 5801 5798 5797 5792 5788 5784 5778 5772 5768 5764 5759 5755 5750 5747 5744 5740 5738 5736 5735 5735
5746 5757 5752 5743 5739 5736 5723 5729 5720 5712 5704 5697 5695 5686 5716 5739 5760 5789 5799 5805 5809 5809 5804 5797 5794 5790 5787 5784 5783 5778 5771 5765 5761 5758 5753 5747 5741 5736 5736 5735 5732 5730 5728 5727
5740 5749 5743 5735 5739 5738 5727 5729 5717 5709 5700 5692 5694 5682 5706 5728 5738 5764 5783 5795 5803 5804 5798 5791 5788 5784 5782 5778 5776 5773 5767 5761 5758 5755 5750 5745 5740 5736 5733 5731 5727 5724 5723 5721
5747 5756 5749 5741 5744 5741 5734 5723 5714 5707 5695 5682 5702 5691 5700 5718 5732 5750 5769 5782 5791 5793 5790 5783 5781 5776 5772 5770 5769 5767 5761 5756 5753 5749 5746 5740 5735 5731 5726 5722 5720 5717 5715 5713
5735 5747 5748 5741 5727 5730 5725 5705 5682 5676 5674 5686 5715 5703 5710 5731 5744 5752 5760 5769 5777 5781 5778 5771 5767 5763 5760 5760 5761 5761 5756 5749 5746 5742 5739 5736 5732 5728 5723 5720 5715 5711 5707 5704
5707 5711 5727 5723 5709 5701 5711 5705 5677 5663 5669 5682 5698 5703 5727 5746 5754 5759 5763 5767 5768 5768 5765 5761 5759 5756 5754 5755 5756 5754 5749 5743 5740 5737 5736 5735 5732 5725 5722 5720 5714 5708 5704 5702
5692 5695 5719 5719 5713 5704 5699 5705 5710 5692 5686 5683 5698 5719 5739 5747 5748 5752 5755 5758 5760 5761 5760 5758 5757 5755 5752 5751 5750 5748 5744 5739 5736 5735 5735 5732 5728 5723 5719 5716 5712 5706 5702 5698
5692 5677 5694 5709 5713 5714 5709 5701 5693 5677 5664 5672 5691 5701 5694 5715 5731 5741 5743 5742 5746 5750 5752 5753 5754 5755 5753 5751 5747 5745 5741 5738 5734 5734 5732 5727 5724 5720 5714 5710 5706 5702 5699 5696
5685 5666 5671 5683 5680 5674 5680 5675 5670 5667 5669 5655 5650 5658 5679 5681 5694 5718 5731 5736 5739 5741 5744 5746 5749 5755 5754 5750 5745 5740 5738 5736 5733 5731 5728 5721 5717 5714 5710 5705 5702 5698 5695 5693
5671 5655 5647 5659 5662 5660 5663 5666 5664 5649 5654 5662 5657 5665 5680 5682 5687 5689 5701 5721 5732 5736 5741 5745 5749 5751 5750 5748 5744 5740 5737 5734 5731 5728 5724 5718 5713 5709 5706 5703 5699 5695 5692 5691
5651 5637 5621 5631 5635 5629 5622 5640 5662 5665 5664 5662 5655 5664 5685 5683 5682 5682 5688 5702 5718 5730 5736 5741 5745 5746 5746 5746 5744 5742 5738 5734 5730 5724 5719 5713 5709 5705 5702 5701 5698 5693 5690 5688
5644 5630 5616 5603 5607 5609 5609 5628 5653 5659 5652 5652 5650 5650 5662 5665 5670 5679 5692 5706 5717 5725 5732 5736 5738 5741 5741 5742 5741 5738 5736 5733 5728 5720 5712 5707 5705 5703 5701 5699 5696 5692 5689 5687
5635 5619 5619 5621 5627 5626 5624 5631 5640 5639 5641 5632 5631 5636 5641 5652 5662 5680 5697 5710 5717 5721 5725 5730 5733 5735 5736 5736 5736 5735 5733 5731 5726 5716 5707 5703 5702 5701 5698 5696 5693 5690 5688 5686
5625 5612 5610 5610 5624 5630 5617 5611 5620 5623 5623 5623 5624 5623 5632 5647 5661 5676 5691 5703 5710 5715 5719 5723 5727 5728 5730 5731 5731 5730 5726 5724 5720 5712 5706 5704 5700 5697 5695 5693 5690 5687 5684 5683
5616 5607 5597 5596 5614 5625 5592 5577 5588 5597 5604 5608 5603 5606 5624 5636 5647 5659 5676 5690 5699 5705 5708 5711 5714 5717 5721 5723 5723 5719 5718 5718 5714 5708 5704 5701 5696 5691 5689 5688 5685 5682 5680 5677
5612 5603 5594 5592 5597 5589 5560 5568 5577 5584 5593 5595 5597 5605 5616 5623 5634 5653 5668 5676 5684 5690 5695 5699 5702 5705 5709 5711 5711 5710 5708 5706 5702 5698 5695 5693 5690 5686 5683 5680 5678 5676 5674 5671
5612 5599 5590 5585 5581 5570 5559 5568 5572 5576 5586 5592 5593 5602 5614 5626 5643 5652 5664 5670 5674 5681 5685 5688 5692 5694 5697 5699 5701 5699 5694 5690 5687 5684 5682 5681 5679 5676 5673 5670 5669 5667 5665 5663
5604 5596 5584 5580 5576 5562 5555 5574 5582 5582 5587 5593 5593 5601 5612 5624 5631 5641 5660 5667 5669 5674 5679 5682 5684 5687 5687 5688 5688 5684 5680 5677 5674 5674 5672 5671 5668 5664 5661 5659 5658 5658 5657 5656
5583 5579 5575 5575 5576 5565 5570 5581 5587 5579 5577 5587 5595 5604 5612 5619 5627 5643 5660 5668 5670 5671 5675 5677 5677 5677 5678 5678 5676 5671 5669 5668 5668 5667 5665 5661 5658 5655 5652 5650 5650 5649 5649 5649
5573 5566 5566 5570 5567 5564 5581 5585 5579 5578 5586 5593 5601 5608 5616 5625 5636 5648 5660 5668 5670 5669 5670 5672 5670 5670 5672 5672 5669 5664 5662 5664 5664 5661 5658 5655 5651 5648 5646 5644 5643 5643 5642 5640
5578 5568 5567 5568 5571 5582 5589 5588 5589 5591 5594 5600 5605 5612 5621 5630 5638 5649 5660 5669 5670 5670 5668 5668 5667 5667 5667 5667 5665 5661 5660 5662 5660 5656 5652 5649 5646 5641 5639 5637 5636 5635 5634 5631
5586 5583 5579 5579 5585 5590 5592 5590 5592 5595 5599 5605 5611 5618 5626 5633 5642 5652 5662 5670 5673 5670 5667 5666 5666 5664 5662 5664 5663 5661 5661 5661 5658 5652 5648 5645 5640 5636 5633 5630 5628 5626 5622 5619
5590 5587 5585 5585 5590 5590 5592 5590 5593 5597 5605 5612 5618 5625 5631 5637 5647 5656 5664 5671 5674 5671 5668 5666 5664 5661 5662 5663 5661 5659 5658 5657 5655 5650 5646 5641 5635 5631 5628 5623 5618 5617 5611 5608
5605 5594 5588 5588 5589 5586 5590 5596 5600 5604 5611 5617 5624 5631 5638 5644 5653 5661 5666 5672 5675 5673 5670 5665 5662 5660 5661 5662 5659 5657 5654 5652 5649 5645 5640 5636 5632 5628 5625 5621 5615 5609 5606 5601